Powrót do katalogu

IRIDIUM 107

AktywnyŁącznośćPO
NORAD 42960·PAYLOAD·🇺🇸 United States

Wystrzelony Oct 9, 2017 z Vandenberg Space Force Base

Loading…

Następne Przeloty (najbliższe 24 godziny)

TLE

ŚwieżeSource: CelesTrak SupGP

Epoka: Sep 14, 2026, 21:29 UTC

1 42960C 17061F   26257.89548611 -.00002577  00000+0 -92140-3 0  2578
2 42960  86.4028 347.7864 0002309  90.7839  50.9747 14.34220367    15

Śledź IRIDIUM 107 w czasie rzeczywistym z AllMySat

Download on the App Store